Location: Unspecified
(35.7250°N, 0.0000°E)
Time: 04:18:03
(UTC+00:00)

Vanguard 1 - Pass Details

Date: 01 July 2019
Orbit: 653 x 3830 km, 34.3° (Epoch: 22 July)

Event Time Altitude Azimuth Distance (km) Brightness Sun altitude
Rises 04:08:42 0° 278° (W) 7,657 14.2 -7.5°
Reaches altitude 10° 04:14:24 10° 277° (W) 6,318 13.7 -6.5°
Maximum altitude 04:32:40 76° 196° (SSW) 2,225 11.8 -3.4°
Drops below altitude 10° 04:42:16 10° 112° (ESE) 3,561 13.5 -1.8°
Sets 04:44:35 0° 111° (ESE) 4,255 14.0 -1.4°
